Weather reports worldwide

Advertisment
Gardelegen, Germany (10359): temperature & dewpoint: 06.11.2019 07:00:00 - 12.11.2019 07:00:00 (CET)Gardelegen, Germany (10359): temperature 5cm & temperature -5cm: 06.11.2019 07:00:00 - 12.11.2019 07:00:00 (CET)Gardelegen, Germany (10359): temperature -20cm & temperature -100cm: 06.11.2019 07:00:00 - 12.11.2019 07:00:00 (CET)Gardelegen, Germany (10359): wind speed & gusts: 06.11.2019 07:00:00 - 12.11.2019 07:00:00 (CET)Gardelegen, Germany (10359): wind direction: 06.11.2019 07:00:00 - 12.11.2019 07:00:00 (CET)Gardelegen, Germany (10359): reduced air pressure: 06.11.2019 07:00:00 - 12.11.2019 07:00:00 (CET)Gardelegen, Germany (10359): visibility: 06.11.2019 07:00:00 - 12.11.2019 07:00:00 (CET)Gardelegen, Germany (10359): sunshine duration: 06.11.2019 07:00:00 - 12.11.2019 07:00:00 (CET)Gardelegen, Germany (10359): precipitation: 06.11.2019 07:00:00 - 12.11.2019 07:00:00 (CET)
Date & Time tt [°C] td [°C] tt 5cm [°C] tt -5cm [°C] tt -20cm [°C] tt -100cm [°C] ff [km/h] ff [kn] fx [km/h] fx [kn] dd ppp [hPa] vv [km] sd [min] rr [mm]
12.11.2019 07:00:00 3,7 0,9 2,1 1,7 3,6 9,5 11 6 19 11 S 1004,7 24 0 0,0
12.11.2019 06:00:00 3,6 0,9 2,5 2,1 3,6 9,5 10 6 18 10 S 1004,4 20 0 0,0
12.11.2019 05:00:00 3,4 0,7 2,5 2,0 3,6 9,6 9 5 17 9 S 1004,4 20 0 0,0
12.11.2019 04:00:00 2,9 0,7 1,9 1,8 3,6 9,6 5 3 14 7 S 1004,2 19 0 0,0
12.11.2019 03:00:00 2,6 0,3 1,6 1,4 3,7 9,6 6 3 16 9 S 1004,5 23 0 0,0
12.11.2019 02:00:00 2,2 0,0 1,1 1,2 3,8 9,6 5 3 11 6 S 1004,7 24 0 0,0
12.11.2019 01:00:00 2,2 -0,1 0,7 1,4 3,9 9,6 7 4 14 7 SSE 1004,6 26 0 0,0
12.11.2019 00:00:00 3,0 -0,2 1,5 1,8 4,0 9,7 11 6 19 10 S 1004,6 31 0 0,0
11.11.2019 23:00:00 4,0 -0,1 2,8 2,3 4,0 9,7 14 7 25 14 SSE 1004,9 39 0 0,0
11.11.2019 22:00:00 4,2 -0,2 3,5 2,3 4,0 9,7 16 9 27 14 S 1005,0 41 0 0,0
11.11.2019 21:00:00 3,3 0,2 2,6 2,1 4,0 9,7 10 5 23 12 SSE 1005,5 31 0 0,0
11.11.2019 20:00:00 3,1 0,0 2,3 2,0 4,1 9,7 15 8 29 15 S 1005,8 27 0 0,0
11.11.2019 19:00:00 2,5 0,1 1,7 1,7 4,3 9,8 14 8 25 13 SSE 1006,3 21 0 0,0
11.11.2019 18:00:00 2,0 0,0 0,5 1,5 4,5 9,8 10 5 19 10 SSE 1007,1 22 0 0,0
11.11.2019 17:00:00 2,6 0,3 0,7 2,4 4,6 9,8 8 4 31 17 SSE 1007,4 27 0 0,0
11.11.2019 16:00:00 3,3 0,4 2,4 4,1 4,5 9,8 19 10 29 16 SSE 1008,0 27 0 0,0
11.11.2019 15:00:00 4,2 1,5 3,8 4,8 4,2 9,8 9 5 26 14 SSE 1008,8 20 24 0,0
11.11.2019 14:00:00 4,9 1,9 5,7 5,7 3,6 9,9 10 5 23 13 SE 1009,6 17 59 0,0
11.11.2019 13:00:00 5,0 2,0 6,2 5,2 3,1 9,9 10 5 22 12 S 1010,0 21 51 0,0
11.11.2019 12:00:00 3,0 2,0 3,7 1,1 3,0 9,9 6 4 16 9 SSE 1010,8 10 0 0,0
11.11.2019 11:00:00 0,9 0,6 1,3 0,1 3,1 9,9 6 4 15 8 SSE 1011,4 6 0 0,0
11.11.2019 10:00:00 -0,3 -0,6 -0,2 0,1 3,1 9,9 9 5 19 10 SSE 1012,1 1,1 0 0,0
11.11.2019 09:00:00 -1,6 -2,1 -1,6 0,0 3,2 10,0 6 4 10 5 S 1013,0 2,8 0 0,0
11.11.2019 08:00:00 -2,8 -3,5 -3,8 -0,2 3,3 10,0 5 3 8 4 E 1012,8 12 0 0,0
11.11.2019 07:00:00 -3,3 -3,8 -4,2 -0,1 3,5 10,0 0 0 5 3 N 1014,1 0,3 0 0,0
11.11.2019 06:00:00 -3,4 -4,0 -4,7 0,0 3,6 10,0 3 1 7 4 SW 1014,3 11 0 0,0
11.11.2019 05:00:00 -3,2 -4,0 -5,0 0,1 3,8 10,0 0 0 5 3 N 1014,4 12 0 0,0
11.11.2019 04:00:00 -2,9 -3,6 -5,1 0,3 3,9 10,0 3 1 6 3 S 1014,8 10 0 0,0
11.11.2019 03:00:00 -2,6 -3,2 -5,3 0,4 4,1 10,0 2 1 6 3 SSW 1015,0 11 0 0,0
11.11.2019 02:00:00 -2,3 -2,8 -4,6 0,6 4,3 10,0 3 2 5 3 SSE 1014,9 10 0 0,0
11.11.2019 01:00:00 -1,9 -2,5 -4,3 0,7 4,6 10,1 2 1 4 2 ESE 1015,2 12 0 0,0
11.11.2019 00:00:00 -1,8 -2,3 -4,0 0,9 4,8 10,1 2 1 4 2 SSW 1015,7 12 0 0,0
10.11.2019 23:00:00 -1,2 -1,6 -3,6 1,1 5,1 10,1 4 2 6 3 SSE 1015,8 10 0 0,0
10.11.2019 22:00:00 -1,3 -1,7 -3,1 1,3 5,5 10,1 4 2 5 3 WSW 1016,2 11 0 0,0
10.11.2019 21:00:00 -0,6 -1,0 -2,9 1,6 5,8 10,1 2 1 4 2 S 1016,1 16 0 0,0
10.11.2019 20:00:00 -0,5 -0,8 -2,7 2,0 6,3 10,1 2 1 4 2 W 1016,1 11 0 0,0
10.11.2019 19:00:00 1,1 0,6 -1,3 2,8 6,7 10,1 3 2 4 2 ESE 1016,0 14 0 0,0
10.11.2019 18:00:00 1,8 1,3 -1,0 3,9 7,0 10,1 2 1 4 2 SSW 1015,9 14 0 0,0
10.11.2019 17:00:00 3,9 2,6 0,8 5,3 7,2 10,1 0 0 4 2 N 1015,5 38 1 0,0
10.11.2019 16:00:00 7,6 3,9 5,1 7,0 7,2 10,2 0 0 7 4 N 1014,9 43 60 0,0
10.11.2019 15:00:00 9,1 2,2 8,6 8,3 6,8 10,2 0 0 11 6 N 1014,6 40 49 0,0
10.11.2019 14:00:00 8,6 2,6 9,4 9,3 6,3 10,2 6 3 10 6 ESE 1014,3 43 59 0,0
10.11.2019 13:00:00 8,8 2,2 10,5 9,3 5,5 10,2 0 0 8 5 N 1014,0 49 60 0,0
10.11.2019 12:00:00 8,0 3,0 9,4 7,8 4,8 10,2 3 1 7 4 NNE 1013,8 39 60 0,0
10.11.2019 11:00:00 6,4 1,8 7,3 5,1 4,4 10,2 0 0 4 2 N 1014,0 30 60 0,0
10.11.2019 10:00:00 2,6 0,1 6,0 1,6 4,4 10,2 0 0 3 2 N 1013,8 20 60 0,0
10.11.2019 09:00:00 -0,2 -0,5 -0,3 0,9 4,6 10,2 0 0 3 2 N 1013,6 16 55 0,0
10.11.2019 08:00:00 -1,8 -2,3 -3,1 0,9 4,8 10,2 2 1 3 2 SW 1013,1 10 0 0,0
10.11.2019 07:00:00 -1,5 -2,0 -3,1 1,0 5,1 10,3 2 1 3 2 SW 1012,5 11 0 0,0
10.11.2019 06:00:00 -1,1 -1,6 -3,1 1,2 5,4 10,3 0 0 4 2 N 1011,9 9 0 0,0
10.11.2019 05:00:00 -0,8 -1,3 -2,8 1,4 5,7 10,3 0 0 4 2 N 1011,5 7 0 0,0
10.11.2019 04:00:00 0,3 -0,1 -1,7 2,0 6,0 10,3 2 1 4 2 S 1010,8 7 0 0,0
10.11.2019 03:00:00 1,8 1,4 -0,8 3,0 6,3 10,3 1 1 4 2 SW 1010,8 8 0 0,0
10.11.2019 02:00:00 1,8 1,4 -0,3 3,1 6,5 10,3 3 2 5 3 S 1010,5 9 0 0,0
10.11.2019 01:00:00 3,2 2,6 1,3 4,2 6,7 10,3 0 0 5 3 N 1010,3 6 0 0,0
10.11.2019 00:00:00 4,3 3,7 2,0 4,8 6,8 10,3 3 1 7 4 SSW 1010,0 8 0 0,0
09.11.2019 23:00:00 4,5 3,9 4,0 5,0 7,0 10,3 4 2 6 3 S 1009,6 16 0 0,0
09.11.2019 22:00:00 4,2 3,8 3,9 4,9 7,1 10,3 4 2 6 4 S 1009,5 12 0 0,0
09.11.2019 21:00:00 3,6 3,2 1,3 4,5 7,4 10,3 3 2 5 3 SSW 1009,2 0,7 0 0,0
09.11.2019 20:00:00 4,9 4,5 4,0 5,6 7,6 10,3 5 3 8 4 S 1008,8 15 0 0,0
09.11.2019 19:00:00 5,5 5,0 4,6 6,1 7,7 10,3 3 2 6 3 W 1009,0 21 0 0,0
09.11.2019 18:00:00 5,9 4,9 5,0 6,4 7,9 10,3 4 2 7 4 SSW 1008,8 33 0 0,0
09.11.2019 17:00:00 6,4 5,3 5,7 6,9 8,0 10,3 6 3 8 5 S 1008,7 43 0 0,0
09.11.2019 16:00:00 7,0 4,7 4,7 7,4 8,0 10,3 3 2 13 7 WSW 1008,3 51 23 0,0
09.11.2019 15:00:00 7,5 4,7 7,0 8,5 7,9 10,3 7 4 19 10 WSW 1008,0 67 4 0,0
09.11.2019 14:00:00 7,7 4,8 7,6 8,5 7,8 10,4 6 3 18 10 WNW 1007,6 49 0 0,0
09.11.2019 13:00:00 7,7 4,7 8,0 9,2 7,4 10,4 13 7 20 11 W 1007,4 44 1 0,0
09.11.2019 12:00:00 7,8 5,1 9,4 9,4 7,1 10,4 11 6 18 10 WNW 1007,5 37 4 0,0
09.11.2019 11:00:00 6,5 4,7 6,7 7,1 7,0 10,4 5 3 13 7 W 1008,0 31 0 0,0
09.11.2019 10:00:00 6,2 4,8 6,3 6,6 6,9 10,4 7 4 11 6 WNW 1007,8 31 0 0,1
09.11.2019 09:00:00 6,0 4,7 5,6 6,1 6,9 10,4 6 3 17 9 WNW 1007,8 33 0 0,1
09.11.2019 08:00:00 6,0 4,3 5,3 5,8 7,0 10,4 10 5 24 13 NW 1007,3 46 0 0,0
09.11.2019 07:00:00 6,1 4,6 5,4 5,9 7,0 10,4 11 6 21 11 NW 1007,3 31 0 0,0
09.11.2019 06:00:00 6,2 4,4 5,4 5,9 7,0 10,4 9 5 18 10 NW 1007,3 40 0 0,0
09.11.2019 05:00:00 6,1 4,6 5,4 5,9 7,1 10,4 9 5 16 8 NW 1006,5 32 0 0,0
09.11.2019 04:00:00 6,0 4,9 5,4 6,0 7,1 10,5 7 4 12 6 WNW 1006,8 17 0 0,0
09.11.2019 03:00:00 6,0 5,0 5,3 6,0 7,1 10,5 4 2 7 4 WNW 1006,8 18 0 0,0
09.11.2019 02:00:00 6,1 5,1 5,5 6,2 7,2 10,5 0 0 7 4 N 1006,9 27 0 0,0
09.11.2019 01:00:00 6,3 4,7 5,5 6,2 7,2 10,5 3 2 15 8 NNW 1006,9 47 0 0,0
09.11.2019 00:00:00 6,3 5,0 5,7 6,2 7,2 10,5 8 4 15 8 NNW 1006,9 31 0 0,0
08.11.2019 23:00:00 6,3 5,5 5,8 6,2 7,3 10,5 7 4 14 8 N 1007,6 20 0 0,0
08.11.2019 22:00:00 6,4 5,7 5,7 6,3 7,3 10,5 9 5 14 8 N 1007,7 14 0 0,1
08.11.2019 21:00:00 6,6 6,0 6,0 6,5 7,3 10,5 5 3 12 6 N 1007,9 13 0 0,2
08.11.2019 20:00:00 6,6 5,9 6,1 6,6 7,4 10,6 7 4 11 6 N 1007,6 13 0 0,4
08.11.2019 19:00:00 6,8 5,7 6,1 6,7 7,4 10,6 4 2 10 5 NNW 1007,6 14 0 0,3
08.11.2019 18:00:00 7,2 5,7 6,4 6,8 7,4 10,6 4 2 13 7 NNE 1007,7 15 0 0,1
08.11.2019 17:00:00 7,5 5,2 6,9 7,0 7,4 10,6 7 4 13 7 N 1007,8 38 0 0,0
08.11.2019 16:00:00 8,0 5,2 7,3 7,5 7,3 10,6 4 2 13 7 NNE 1007,9 42 0 0,0
08.11.2019 15:00:00 8,4 4,8 8,0 8,1 7,1 10,6 5 3 13 7 NE 1007,7 48 0 0,0
08.11.2019 14:00:00 8,7 5,4 8,3 8,5 6,8 10,6 4 2 10 5 NNE 1007,8 52 0 0,0
08.11.2019 13:00:00 8,0 6,1 7,6 8,1 6,4 10,6 5 3 10 5 N 1007,9 29 0 0,0
08.11.2019 12:00:00 7,0 5,0 6,8 7,5 6,0 10,6 4 2 7 4 NE 1008,4 32 1 0,0
08.11.2019 11:00:00 5,2 4,4 5,4 5,6 5,8 10,7 5 3 8 5 N 1008,6 20 0 0,0
08.11.2019 10:00:00 3,6 2,9 4,1 4,5 5,7 10,7 2 1 4 2 NW 1008,6 23 0 0,0
08.11.2019 09:00:00 2,3 1,8 1,6 3,2 5,8 10,7 0 0 3 2 N 1008,5 35 0 0,0
08.11.2019 08:00:00 1,2 0,9 0,7 2,7 6,0 10,7 2 1 6 4 WSW 1008,3 38 0 0,0
08.11.2019 07:00:00 1,4 1,0 -0,2 2,4 6,3 10,7 0 0 4 2 N 1007,4 33 0 0,0
08.11.2019 06:00:00 0,8 0,3 -1,1 2,3 6,6 10,7 0 0 3 2 N 1007,1 2,1 0 0,0
08.11.2019 05:00:00 2,2 1,7 -0,6 2,9 6,9 10,7 3 2 6 4 SSE 1007,0 28 0 0,0
08.11.2019 04:00:00 3,4 2,8 0,5 3,6 7,2 10,7 4 2 8 4 S 1006,7 59 0 0,0
08.11.2019 03:00:00 4,3 3,1 1,6 4,5 7,5 10,7 4 2 8 4 SSW 1006,3 42 0 0,0
08.11.2019 02:00:00 5,9 4,4 2,7 4,8 7,7 10,7 5 3 9 5 S 1006,0 61 0 0,0
08.11.2019 01:00:00 6,6 4,9 3,0 5,3 8,0 10,7 4 2 13 7 SSW 1005,0 49 0 0,0
08.11.2019 00:00:00 7,3 5,1 3,1 6,1 8,1 10,8 5 3 19 10 S 1004,4 63 0 0,0
07.11.2019 23:00:00 9,6 5,7 8,3 7,4 8,2 10,8 12 6 22 12 S 1003,8 56 0 0,0
07.11.2019 22:00:00 9,1 5,8 8,2 7,3 8,3 10,8 8 5 24 13 S 1003,2 52 0 0,0
07.11.2019 21:00:00 9,4 5,7 8,1 7,5 8,3 10,8 14 7 24 13 SSE 1002,7 46 0 0,0
07.11.2019 20:00:00 9,6 6,1 8,6 7,8 8,3 10,8 14 8 22 12 SSE 1002,1 35 0 0,0
07.11.2019 19:00:00 9,2 6,7 7,8 7,8 8,4 10,8 9 5 19 11 SE 1002,1 44 0 0,0
07.11.2019 18:00:00 9,4 7,0 8,1 7,9 8,4 10,8 11 6 22 12 SE 1002,2 33 0 0,0
07.11.2019 17:00:00 9,2 7,3 8,0 8,0 8,4 10,8 8 4 14 8 SE 1001,8 38 0 0,0
07.11.2019 16:00:00 10,0 7,8 8,5 8,9 8,3 10,8 7 4 15 8 SE 1001,8 32 4 0,0
07.11.2019 15:00:00 10,2 7,7 8,8 9,6 8,0 10,9 8 4 16 9 SE 1001,8 28 21 0,0
07.11.2019 14:00:00 9,4 7,8 8,5 9,3 7,7 10,9 5 3 10 6 E 1001,7 9 0 0,0
07.11.2019 13:00:00 8,7 7,5 8,9 9,4 7,3 10,9 6 4 13 7 SE 1002,0 11 0 0,0
07.11.2019 12:00:00 7,5 6,7 7,7 8,0 7,0 10,9 8 4 14 8 ESE 1002,3 8 0 0,0
07.11.2019 11:00:00 6,8 6,0 7,0 7,3 6,7 10,9 6 3 11 6 ENE 1002,8 11 0 0,0
07.11.2019 10:00:00 5,1 4,6 5,5 6,2 6,6 10,9 7 4 10 6 ENE 1002,8 10 0 0,0
07.11.2019 09:00:00 3,4 3,2 3,7 4,9 6,6 10,9 0 0 8 4 N 1003,1 1,8 0 0,0
07.11.2019 08:00:00 2,7 2,5 2,9 4,2 6,7 10,9 0 0 4 2 N 1003,3 0,4 0 0,0
07.11.2019 07:00:00 1,7 1,4 1,6 3,7 6,9 10,9 0 0 4 2 N 1002,9 0,5 0 0,0
07.11.2019 06:00:00 1,8 1,4 0,5 3,6 7,1 10,9 0 0 3 2 N 1002,9 14 0 0,0
07.11.2019 05:00:00 2,2 1,9 2,1 4,3 7,3 10,9 0 0 4 2 N 1003,0 18 0 0,0
07.11.2019 04:00:00 1,6 1,3 1,4 3,9 7,6 10,9 0 0 4 2 N 1003,0 0,7 0 0,0
07.11.2019 03:00:00 1,7 1,3 -0,1 3,8 7,9 10,9 2 1 4 2 W 1003,2 0,6 0 0,0
07.11.2019 02:00:00 3,0 2,7 1,6 4,5 8,3 10,9 3 1 4 2 SE 1003,5 0,7 0 0,0
07.11.2019 01:00:00 3,7 3,2 0,8 5,2 8,6 10,9 2 1 5 3 S 1003,7 0,8 0 0,0
07.11.2019 00:00:00 5,5 5,0 2,9 6,2 8,8 10,9 4 2 8 4 S 1003,7 8 0 0,0
06.11.2019 23:00:00 6,7 6,0 6,2 7,3 8,9 10,9 5 3 8 4 SSW 1003,6 18 0 0,0
06.11.2019 22:00:00 6,7 5,9 6,2 7,4 9,0 10,9 5 3 11 6 SSW 1003,5 23 0 0,0
06.11.2019 21:00:00 6,6 5,8 6,1 7,5 9,2 10,9 3 2 8 5 S 1003,3 21 0 0,0
06.11.2019 20:00:00 6,8 5,8 6,3 7,7 9,3 10,9 7 4 9 5 S 1002,8 32 0 0,0
06.11.2019 19:00:00 6,7 6,0 6,2 7,9 9,5 10,9 2 1 5 3 S 1002,9 28 0 0,0
06.11.2019 18:00:00 7,2 5,7 6,0 8,3 9,7 10,9 3 2 12 7 W 1002,6 41 0 0,0
06.11.2019 17:00:00 7,9 6,0 7,1 8,8 9,8 10,9 7 4 16 8 WNW 1002,1 48 0 0,0
06.11.2019 16:00:00 8,2 6,3 7,8 9,5 9,9 10,9 8 4 16 9 W 1001,8 47 0 0,0
06.11.2019 15:00:00 8,6 7,2 8,4 10,0 9,9 10,9 6 3 11 6 W 1001,4 31 0 0,0
06.11.2019 14:00:00 8,7 6,8 8,7 10,7 9,7 10,9 7 4 12 6 NW 1001,0 51 0 0,0
06.11.2019 13:00:00 8,5 6,9 8,8 10,7 9,5 10,9 8 4 14 8 WNW 1000,8 54 0 0,2
06.11.2019 12:00:00 8,7 6,6 10,1 11,0 9,2 10,9 4 2 9 5 WNW 1000,6 52 0 0,2
06.11.2019 11:00:00 8,0 6,7 8,2 9,8 9,1 10,9 4 2 10 5 NNW 1000,4 18 0 0,3
06.11.2019 10:00:00 7,9 6,8 8,0 9,2 9,0 10,9 6 3 10 5 N 1000,2 28 0 0,3
06.11.2019 09:00:00 7,7 6,9 7,8 8,6 9,0 10,9 4 2 9 5 NNW 999,7 22 0 0,1
06.11.2019 08:00:00 7,6 7,0 7,4 8,2 9,0 10,9 5 3 9 5 N 999,1 10 0 1,0
06.11.2019 07:00:00 7,9 6,9 7,6 8,2 9,1 10,9 7 4 13 7 WNW 998,3 9 0 0,5

tt = temperature
td = dewpoint
tt 5cm = temperature 5cm
tt -5cm = temperature -5cm
tt -20cm = temperature -20cm
tt -100cm = temperature -100cm
ff = wind speed
fx = gusts
dd = wind direction
ppp = reduced air pressure
vv = visibility
sd = sunshine duration
rr = precipitation

Next stations